Location: Unnamed Road
(35.9029°N, 51.9749°E)
Time: 02:48:30
(UTC+04:30)

Vanguard 1 Rocket - Visible Passes

Search period start: 26 May 2020 00:00
Search period end: 05 June 2020 00:00
Orbit: 653 x 4224 km, 34.3° (Epoch: 23 May)

Date Brightness Start Highest point End Pass type
(mag) Time Alt. Az. Time Alt. Az. Time Alt. Az.
26 May 9.7 01:15:04 39° SE 01:15:04 39° SE 01:22:55 10° E visible
26 May 8.5 03:32:14 26° WSW 03:40:36 70° SSE 03:47:49 10° E visible
27 May 10.3 00:06:42 23° ESE 00:06:42 23° ESE 00:11:09 10° E visible
27 May 9.0 02:23:51 44° SW 02:28:32 60° SSE 02:37:17 10° E visible
27 May 8.1 04:43:37 10° W 04:55:21 81° S 05:01:25 10° E visible
27 May 10.9 22:30:20 10° S 22:58:04 10° E 22:35:25 16° S visible
28 May 9.5 01:15:11 49° SSE 01:15:54 50° SSE 01:26:24 10° E visible
28 May 8.5 03:32:17 18° WSW 03:43:42 77° S 03:51:05 10° E visible
28 May 11.1 21:22:04 10° SSE 21:30:48 14° SE 21:30:48 14° SE visible
28 May 10.0 23:42:33 10° SSW 00:06:01 37° SE 00:14:56 10° E visible
29 May 9.0 02:23:03 33° SW 02:31:33 69° SSE 02:40:34 10° E visible
29 May 8.2 04:46:27 10° W 04:58:30 81° S 05:04:41 10° E visible
29 May 10.5 22:29:57 10° SSW 22:55:38 25° ESE 23:02:25 10° E visible
30 May 9.5 00:58:08 10° SW 01:18:50 59° SSE 01:29:46 10° E visible
30 May 8.6 03:31:23 10° W 03:46:48 81° S 03:54:21 10° E visible
30 May 10.9 21:19:31 10° S 21:35:18 21° SE 21:47:57 10° E visible
30 May 9.9 23:43:37 10° SW 00:05:33 48° SSE 00:18:26 10° E visible
31 May 9.0 02:15:43 10° WSW 02:34:34 76° SSE 02:43:49 10° E visible
31 May 8.2 04:49:18 10° W 05:01:38 77° S 05:07:56 10° ESE visible
31 May 10.4 22:30:19 10° SSW 22:51:50 38° SSE 23:06:19 10° E visible
01 Jun 9.4 01:00:04 10° WSW 01:21:44 67° SSE 01:33:01 10° E visible
01 Jun 8.7 03:34:06 10° W 03:49:54 83° S 03:57:36 10° E visible
01 Jun 10.8 21:18:44 10° S 21:37:53 27° SE 21:52:48 10° E visible
01 Jun 9.9 23:45:04 10° SW 00:08:19 56° SSE 00:21:47 10° E visible
02 Jun 9.1 02:18:13 10° WSW 02:37:35 81° S 02:47:03 10° E visible
02 Jun 8.3 04:52:07 10° W 05:04:43 71° SSW 05:11:08 10° ESE visible
02 Jun 10.3 22:31:12 10° SSW 22:54:26 45° SSE 23:09:53 10° E visible
03 Jun 9.5 01:02:14 10° WSW 01:24:38 74° SSE 01:36:15 10° E visible
03 Jun 8.7 03:36:50 10° W 03:52:59 82° S 04:00:51 10° E visible
03 Jun 10.7 21:18:52 10° SSW 21:40:21 34° SE 21:56:53 10° E visible
03 Jun 9.8 23:46:49 10° SW 00:11:04 64° SSE 00:25:02 10° E visible
04 Jun 9.1 02:20:49 10° W 02:40:36 84° S 02:50:18 10° E visible
04 Jun 8.4 04:54:56 10° W 05:07:41 63° SSW 05:14:15 10° ESE visible
04 Jun 10.2 22:32:30 10° SW 22:57:00 53° SSE 23:13:14 10° E visible
